DEHML EDDN-EDNT

Flight info

Callsign DEHML
Flight time 0h 19m
Altitude 3000
Route EDDN EDNT
Aircraft PIVI/L-VGD/A

Departure

Time 2026-04-29 14:34
Airport Nuremberg Airport (EDDN)

Arrival

Time 2026-04-29 14:53
Airport Treuchtlingen-Bubenheim Airfield (EDNT)
Time Latitude Longitude Altitude Speed Heading
2026-04-29 14:16 49.49413 11.06877 1021 ft 0 kts 280°
2026-04-29 14:27 49.49414 11.06875 1021 ft 2 kts 295°
2026-04-29 14:27 49.49442 11.06906 1021 ft 9 kts
2026-04-29 14:28 49.49516 11.07015 1021 ft 8 kts 98°
2026-04-29 14:28 49.49508 11.07093 1021 ft 9 kts 96°
2026-04-29 14:28 49.49512 11.07189 1021 ft 9 kts 24°
2026-04-29 14:28 49.49559 11.07201 1021 ft 5 kts
2026-04-29 14:29 49.49593 11.07209 1020 ft 6 kts
2026-04-29 14:29 49.49633 11.07219 1020 ft 6 kts
2026-04-29 14:29 49.49692 11.07233 1018 ft 10 kts
2026-04-29 14:29 49.49739 11.07177 1016 ft 9 kts 277°
2026-04-29 14:30 49.49761 11.07087 1016 ft 9 kts 322°
2026-04-29 14:30 49.49819 11.07049 1015 ft 9 kts 336°
2026-04-29 14:30 49.49851 11.07029 1016 ft 0 kts 340°
2026-04-29 14:32 49.49852 11.07029 1016 ft 0 kts 340°
2026-04-29 14:32 49.49895 11.07010 1017 ft 7 kts
2026-04-29 14:32 49.49929 11.07032 1018 ft 6 kts 46°
2026-04-29 14:33 49.49940 11.07096 1018 ft 0 kts 98°
2026-04-29 14:33 49.49937 11.07120 1018 ft 12 kts 99°
2026-04-29 14:34 49.49896 11.07548 1023 ft 67 kts 99°
2026-04-29 14:34 49.49816 11.08340 1215 ft 73 kts 97°
2026-04-29 14:34 49.49734 11.09128 1450 ft 82 kts 93°
2026-04-29 14:34 49.49665 11.10053 1719 ft 91 kts 91°
2026-04-29 14:35 49.49583 11.11026 2029 ft 95 kts 100°
2026-04-29 14:35 49.49048 11.11714 2113 ft 121 kts 172°
2026-04-29 14:35 49.48523 11.10746 2124 ft 126 kts 259°
2026-04-29 14:35 49.48287 11.09478 2151 ft 126 kts 254°
2026-04-29 14:36 49.48142 11.08143 2112 ft 124 kts 266°
2026-04-29 14:36 49.47864 11.06905 2095 ft 127 kts 245°
2026-04-29 14:36 49.47359 11.05797 2074 ft 125 kts 225°
2026-04-29 14:36 49.46833 11.04758 2100 ft 122 kts 229°
2026-04-29 14:37 49.46313 11.03711 1976 ft 125 kts 231°
2026-04-29 14:37 49.45755 11.02580 1929 ft 138 kts 230°
2026-04-29 14:37 49.45174 11.01419 2011 ft 136 kts 228°
2026-04-29 14:37 49.44584 11.00272 2050 ft 136 kts 225°
2026-04-29 14:38 49.43927 10.99287 2072 ft 133 kts 219°
2026-04-29 14:38 49.43216 10.98354 2033 ft 134 kts 214°
2026-04-29 14:38 49.42470 10.97529 2065 ft 131 kts 197°
2026-04-29 14:38 49.41592 10.97332 2088 ft 128 kts 180°
2026-04-29 14:39 49.40708 10.97123 2066 ft 130 kts 181°
2026-04-29 14:39 49.39816 10.96958 2031 ft 128 kts 178°
2026-04-29 14:39 49.38931 10.96793 1968 ft 128 kts 178°
2026-04-29 14:39 49.38063 10.96593 1963 ft 126 kts 184°
2026-04-29 14:40 49.37220 10.96245 1941 ft 122 kts 189°
2026-04-29 14:40 49.36393 10.95891 1898 ft 125 kts 187°
2026-04-29 14:40 49.35580 10.95574 1942 ft 121 kts 184°
2026-04-29 14:40 49.34733 10.95308 1997 ft 125 kts 185°
2026-04-29 14:41 49.33890 10.95266 2089 ft 118 kts 162°
2026-04-29 14:41 49.33117 10.95646 2082 ft 115 kts 155°
2026-04-29 14:41 49.32385 10.96101 2062 ft 113 kts 151°
2026-04-29 14:41 49.31656 10.96544 2079 ft 114 kts 153°
2026-04-29 14:42 49.30913 10.96966 2055 ft 112 kts 152°
2026-04-29 14:42 49.30217 10.97404 2061 ft 110 kts 148°
2026-04-29 14:42 49.29501 10.97874 2080 ft 113 kts 148°
2026-04-29 14:42 49.28749 10.98317 2059 ft 117 kts 154°
2026-04-29 14:43 49.27973 10.98711 2039 ft 118 kts 167°
2026-04-29 14:43 49.27157 10.98743 2054 ft 118 kts 176°
2026-04-29 14:43 49.26349 10.98653 2081 ft 119 kts 180°
2026-04-29 14:43 49.25530 10.98395 2094 ft 121 kts 186°
2026-04-29 14:44 49.24708 10.98102 2112 ft 122 kts 187°
2026-04-29 14:44 49.24156 10.97858 2110 ft 127 kts 191°
2026-04-29 14:44 49.23300 10.97466 2081 ft 128 kts 188°
2026-04-29 14:44 49.22430 10.97191 2080 ft 127 kts 186°
2026-04-29 14:45 49.21580 10.96869 2074 ft 125 kts 188°
2026-04-29 14:45 49.20751 10.96500 2049 ft 122 kts 185°
2026-04-29 14:45 49.19929 10.96249 2030 ft 119 kts 185°
2026-04-29 14:45 49.19127 10.95913 2073 ft 121 kts 188°
2026-04-29 14:46 49.18303 10.95601 2094 ft 122 kts 189°
2026-04-29 14:46 49.17474 10.95260 2109 ft 124 kts 190°
2026-04-29 14:46 49.16645 10.94941 2153 ft 123 kts 184°
2026-04-29 14:46 49.15846 10.94683 2380 ft 113 kts 188°
2026-04-29 14:47 49.15100 10.94328 2584 ft 109 kts 187°
2026-04-29 14:47 49.14404 10.94108 2717 ft 97 kts 185°
2026-04-29 14:47 49.13750 10.93883 2879 ft 96 kts 186°
2026-04-29 14:47 49.13113 10.93582 3061 ft 94 kts 187°
2026-04-29 14:48 49.12461 10.93342 3173 ft 101 kts 183°
2026-04-29 14:48 49.11747 10.93097 3298 ft 113 kts 185°
2026-04-29 14:48 49.10946 10.92739 3338 ft 124 kts 192°
2026-04-29 14:48 49.10094 10.92383 3315 ft 130 kts 187°
2026-04-29 14:49 49.09204 10.92084 3267 ft 132 kts 182°
2026-04-29 14:49 49.08272 10.91887 3084 ft 132 kts 171°
2026-04-29 14:49 49.07475 10.92283 2886 ft 113 kts 146°
2026-04-29 14:49 49.06639 10.92368 2547 ft 136 kts 189°
2026-04-29 14:50 49.05790 10.91786 2467 ft 131 kts 198°
2026-04-29 14:50 49.04962 10.91221 2345 ft 129 kts 199°
2026-04-29 14:50 49.04174 10.90632 2211 ft 128 kts 197°
2026-04-29 14:50 49.03373 10.90129 2244 ft 123 kts 193°
2026-04-29 14:51 49.02578 10.89585 2240 ft 124 kts 208°
2026-04-29 14:51 49.01910 10.88763 2142 ft 126 kts 224°
2026-04-29 14:51 49.01384 10.87814 1974 ft 108 kts 230°
2026-04-29 14:51 49.01088 10.87442 1750 ft 103 kts 199°
2026-04-29 14:52 49.00804 10.87319 1629 ft 83 kts 182°
2026-04-29 14:53 49.00424 10.87570 1569 ft 58 kts 134°
2026-04-29 14:53 49.00090 10.87953 1482 ft 61 kts 141°
2026-04-29 14:53 48.99749 10.88300 1366 ft 55 kts 146°
2026-04-29 14:53 48.99508 10.88541 1362 ft 21 kts 149°
2026-04-29 14:54 48.99493 10.88602 1362 ft 6 kts 73°
2026-04-29 14:54 48.99471 10.88649 1361 ft 4 kts 141°
2026-04-29 14:54 48.99469 10.88665 1361 ft 0 kts 61°